Theta_e
344 344 338 336 334 335 339 341 340 342 342 342 342 342 342 342 343 343 343 342 342 341 340 339 339 339 334 332 330 329 328 333 336 336 337 338 339 340 341 339 338 338 340 341 340 340 340 341 340 340 341 338 335 333 331 328 326 325 326 331 335 336 337 337 337 337 338 340 341 342 340 335 333 333 333 334 336 337 337 338 334 327 326 328 334
343 344 339 335 335 334 338 342 340 342 341 342 342 342 342 342 342 342 342 342 342 341 341 338 335 334 330 329 331 329 329 333 335 335 337 337 339 339 339 337 336 335 336 338 339 339 340 341 340 341 340 336 333 333 332 330 328 326 324 325 329 332 334 334 334 335 338 339 341 341 339 336 334 334 335 334 335 337 338 337 331 324 323 321 324
342 344 339 334 336 334 337 341 340 342 341 342 342 341 342 341 342 341 342 340 341 341 340 335 331 331 331 333 334 331 328 331 333 335 337 337 337 336 336 335 336 336 336 336 338 339 340 341 340 340 339 336 334 333 331 331 330 328 326 324 325 327 328 329 330 333 338 340 341 341 340 338 336 336 336 335 333 333 333 331 326 325 327 325 322
341 344 338 334 336 334 336 339 340 341 340 341 341 341 341 341 341 340 341 340 341 340 336 331 331 335 336 337 337 334 329 329 330 333 336 336 335 335 335 335 337 337 337 338 339 340 340 340 340 339 337 336 335 333 331 331 330 329 329 327 326 326 326 326 326 327 334 340 340 340 340 339 338 337 336 333 331 330 328 327 325 325 327 326 324
341 343 336 334 336 335 335 338 340 341 341 340 339 341 340 340 340 340 340 339 340 337 333 333 336 338 339 339 339 337 334 332 332 333 335 336 335 335 335 335 337 336 337 339 340 340 339 339 338 337 336 335 334 332 330 329 329 328 328 329 329 328 328 327 327 325 330 336 336 337 341 341 339 339 337 333 331 330 329 327 327 329 329 327 326
342 344 336 333 336 336 335 336 339 341 341 340 339 340 340 339 339 339 339 338 339 336 335 337 339 339 340 340 340 339 337 336 336 336 336 336 335 334 334 335 337 337 339 340 339 339 338 338 336 335 335 334 334 332 330 329 329 327 324 324 325 327 329 328 328 327 327 331 332 335 340 341 340 339 340 337 335 334 333 331 329 331 333 330 328
342 345 338 333 335 336 336 336 338 340 340 340 340 340 340 339 338 338 337 337 337 336 337 339 340 340 340 339 340 339 338 338 338 337 337 337 336 335 334 335 337 338 339 339 339 338 337 337 335 334 334 333 333 333 331 331 331 325 317 315 317 319 323 325 326 327 328 330 332 334 337 339 339 338 339 339 339 338 338 336 331 329 331 333 331
342 345 340 333 335 336 336 336 338 340 340 339 340 340 339 339 338 336 337 337 338 338 338 339 339 339 338 339 340 338 338 338 338 338 337 337 336 336 335 336 338 338 339 338 338 337 336 335 333 333 333 332 332 334 333 332 327 316 308 306 307 308 312 314 317 321 325 330 332 333 334 336 338 337 338 338 339 338 338 338 335 330 330 334 335
340 345 342 335 336 336 336 337 338 340 340 340 340 339 339 339 338 336 336 337 338 338 338 339 338 338 338 338 339 339 339 339 339 338 337 336 335 335 336 336 337 338 338 337 336 335 335 334 332 331 331 331 331 332 330 326 316 305 302 301 301 302 303 303 309 317 322 327 331 333 333 334 337 337 337 337 336 336 336 337 338 335 331 333 333
339 343 343 338 338 337 336 337 338 340 341 340 340 339 338 339 338 338 337 336 337 337 337 338 338 338 338 338 340 340 339 339 339 338 337 336 335 335 336 336 337 337 337 336 335 334 333 332 330 330 330 330 329 328 324 315 304 301 301 300 300 300 300 300 306 317 321 324 327 329 331 332 336 337 336 337 334 333 333 334 337 335 333 333 333
338 341 344 340 340 340 337 337 339 340 341 340 339 338 338 339 338 338 338 336 336 337 336 337 338 338 339 339 340 340 339 339 338 337 336 335 334 334 335 335 336 335 335 334 333 332 331 331 329 329 329 328 325 322 313 304 300 300 300 300 301 300 301 302 306 314 320 323 324 326 329 332 335 336 335 336 334 332 332 331 333 334 334 336 335
337 339 343 342 341 342 339 337 338 340 341 340 340 338 337 338 337 336 336 336 335 336 336 337 338 338 339 340 340 340 339 338 338 336 335 334 333 333 333 334 335 334 334 333 331 330 329 329 328 327 327 325 320 313 304 300 300 300 300 300 300 300 300 303 306 310 314 320 325 328 330 332 334 334 334 335 333 333 333 332 333 334 336 336 336
336 338 341 343 343 343 341 338 338 339 341 340 340 338 337 338 338 337 337 337 336 335 336 337 338 339 340 339 339 340 339 338 337 335 334 334 333 333 332 332 333 334 333 331 329 329 328 327 327 326 324 320 311 303 299 300 300 300 300 300 300 300 300 301 305 307 311 319 326 329 330 332 333 333 333 333 333 334 334 334 335 336 335 336 335
335 338 341 343 343 343 342 339 338 339 340 341 340 339 338 338 338 338 338 338 337 336 336 337 338 339 339 338 339 339 339 338 336 335 334 333 333 332 331 330 332 333 332 330 328 327 327 327 326 324 319 311 302 299 299 299 299 299 300 300 300 300 300 300 302 306 312 321 326 327 327 330 331 331 331 331 331 332 333 334 334 335 334 334 334
334 337 340 341 342 342 342 340 339 338 339 340 340 339 338 338 339 339 339 338 337 336 336 336 337 338 338 338 339 339 339 338 336 335 334 333 332 331 329 328 330 331 331 329 327 326 326 326 325 320 311 302 299 299 299 299 299 299 299 300 300 300 300 301 306 307 314 322 325 324 321 324 329 329 329 329 329 330 330 331 332 333 333 333 332
336 336 339 341 341 340 340 340 339 338 338 339 340 340 339 339 339 339 339 338 337 336 335 335 337 337 337 338 339 338 338 337 337 335 334 332 331 330 328 326 328 328 328 327 325 325 325 325 324 316 303 299 299 299 299 299 299 299 299 300 299 300 299 302 307 306 313 323 324 323 319 321 327 328 328 327 327 327 328 329 329 330 330 331 331
336 337 337 339 339 338 338 339 339 338 338 339 339 340 339 339 339 339 339 338 337 336 336 335 336 337 337 338 338 338 338 336 335 335 333 331 330 329 327 326 326 326 325 325 324 324 324 325 322 311 300 298 299 299 299 299 299 300 299 300 299 299 299 300 302 301 312 321 322 323 319 321 325 325 327 326 326 326 326 327 327 328 328 328 328
336 337 336 337 338 338 336 337 337 337 337 338 339 339 339 339 338 338 338 337 336 336 336 336 337 338 337 338 338 338 337 336 335 333 332 331 330 328 327 325 325 325 324 324 324 324 323 324 320 307 299 299 298 299 299 299 300 300 300 300 299 299 299 299 299 300 311 318 317 317 316 319 322 323 324 324 325 325 324 325 325 326 326 326 326
335 337 336 335 336 337 337 335 333 333 335 338 339 339 339 338 337 337 337 336 335 335 336 336 338 338 337 338 338 337 336 335 334 333 332 331 329 328 327 324 323 325 324 324 323 323 323 322 316 303 298 299 298 299 298 299 299 299 299 299 299 299 298 298 298 301 311 316 312 309 311 316 320 322 322 323 323 323 323 324 323 324 324 325 325
332 335 336 335 336 337 338 336 333 330 333 338 339 339 339 338 337 336 337 336 335 335 336 337 338 337 337 338 338 336 336 335 333 332 331 330 329 327 327 323 321 324 324 323 323 323 323 321 313 301 298 299 298 299 298 299 298 298 299 298 299 298 298 298 297 300 308 311 304 303 308 313 319 322 321 321 320 320 321 321 322 322 323 324 323
329 331 334 335 335 336 337 337 335 332 332 337 339 339 338 337 336 336 336 335 335 335 336 337 337 337 338 338 337 336 335 334 332 331 330 329 329 327 327 323 318 322 324 323 323 323 321 320 313 300 298 298 298 298 298 298 298 298 298 298 298 297 297 297 297 298 302 303 298 300 305 309 316 321 321 319 318 317 318 319 321 323 322 323 322
328 328 330 333 334 334 336 337 337 335 333 336 337 338 337 336 336 335 336 336 336 336 337 337 337 338 337 337 336 335 334 333 331 329 329 329 328 327 327 324 315 318 324 323 323 322 320 320 313 299 297 298 297 298 298 298 298 298 298 298 298 297 297 297 296 297 298 298 296 297 301 304 312 320 320 317 315 314 315 318 321 322 321 321 321
327 328 327 329 332 333 335 336 337 336 335 335 336 337 337 336 335 335 335 335 335 335 336 337 337 337 337 336 334 333 333 331 330 328 329 328 328 327 326 325 316 316 323 322 322 321 320 320 313 299 297 298 297 298 298 298 299 298 298 298 297 296 296 297 296 296 296 296 296 296 297 299 306 317 320 318 317 315 316 319 320 320 320 321 321
327 327 325 326 329 331 333 334 336 337 336 335 335 336 336 336 335 335 335 334 334 335 336 336 337 337 336 335 333 332 331 330 329 328 328 327 327 326 325 325 316 315 322 321 321 320 319 320 314 300 297 297 297 298 298 298 299 299 299 298 297 297 296 296 296 296 296 295 296 295 296 296 300 313 320 318 318 317 318 320 320 320 320 320 320
327 327 327 327 327 327 330 332 335 336 336 335 335 335 336 335 335 335 335 334 334 335 336 336 337 336 335 335 332 331 330 329 328 328 327 326 326 325 324 324 315 315 322 320 320 320 318 318 312 298 297 297 297 298 298 299 299 298 299 298 297 298 297 296 296 296 297 296 295 295 295 295 297 309 319 319 317 318 319 319 319 319 320 320 319
325 328 329 328 326 326 327 330 333 335 335 335 335 335 335 335 335 335 335 335 335 335 336 336 336 335 334 333 332 331 330 329 328 328 327 326 326 324 324 322 314 314 322 320 318 318 318 315 306 297 297 296 297 298 298 298 299 299 299 298 298 298 297 297 296 295 297 296 295 295 295 295 295 303 315 319 317 318 318 318 319 318 319 318 318
322 326 328 328 328 327 326 328 332 334 335 335 335 335 335 334 335 335 335 335 335 335 335 335 335 335 334 333 332 331 329 329 328 328 327 326 325 324 323 320 313 315 321 320 316 316 316 311 302 298 297 296 297 297 298 299 299 299 299 298 298 298 297 297 296 295 296 297 296 295 295 295 295 299 312 319 317 318 318 318 318 317 318 317 317
319 323 326 328 329 328 327 327 330 332 333 334 334 335 335 334 334 334 334 333 334 334 333 333 333 334 333 332 331 330 329 329 328 327 326 325 325 323 322 318 313 315 320 320 317 315 314 310 302 298 297 296 297 297 298 299 299 299 299 299 298 298 298 297 296 295 296 297 296 296 295 295 295 299 311 318 317 317 318 317 317 316 317 317 317
318 320 323 326 328 328 327 327 329 330 332 333 334 334 334 334 333 333 333 333 332 333 333 332 332 332 332 331 330 329 329 328 328 327 326 325 324 322 320 316 315 317 319 319 317 316 314 310 303 298 296 297 298 298 298 298 299 300 300 300 299 298 298 298 297 296 296 297 297 295 295 295 296 300 309 317 318 317 317 316 317 316 316 316 316
318 318 321 324 327 327 327 327 328 329 330 332 333 333 333 333 333 332 333 332 332 332 332 332 331 331 331 330 330 329 328 328 327 326 325 324 322 320 318 316 316 318 318 316 316 316 314 310 305 299 296 297 298 298 298 298 299 300 300 300 299 299 298 298 297 297 296 297 297 295 295 294 296 301 307 314 317 316 316 316 316 316 315 316 315
317 317 319 321 324 325 327 327 327 328 329 331 332 333 333 333 332 332 332 332 332 332 332 332 331 331 331 330 330 329 328 328 327 326 325 323 321 319 318 317 316 318 318 316 315 316 315 310 304 299 297 297 297 297 297 298 299 300 300 299 299 298 297 297 297 297 297 297 297 295 296 295 295 301 306 312 315 315 315 315 315 315 315 315 315
317 317 317 319 321 323 325 326 327 327 328 329 331 332 332 332 332 332 331 331 331 332 332 332 331 331 330 330 329 328 328 327 326 326 325 323 321 319 318 317 317 319 319 317 315 316 314 309 303 299 298 297 297 297 297 297 298 299 299 298 297 297 297 297 296 296 296 296 296 295 296 295 296 301 307 309 312 313 314 314 314 315 314 314 314
317 317 318 318 319 320 323 325 326 327 328 328 329 330 331 331 331 331 331 330 331 331 331 331 331 330 330 329 329 328 327 327 326 326 324 323 321 319 318 318 318 319 319 317 315 314 311 307 302 299 298 297 297 297 297 297 297 298 298 297 296 296 296 296 296 295 295 295 297 297 296 295 296 302 307 308 308 310 312 313 313 314 313 313 313
314 314 316 318 318 319 321 324 326 327 327 327 328 329 330 330 330 331 330 330 330 330 330 330 330 330 329 329 328 327 327 326 326 325 324 323 321 319 318 317 318 318 317 316 314 312 308 304 301 299 298 298 298 298 297 297 297 297 297 296 295 295 295 295 296 295 294 295 297 299 299 298 298 301 306 308 307 309 310 311 312 313 312 312 312
312 312 313 315 317 318 319 322 324 325 327 327 327 328 328 329 329 330 330 329 330 330 330 329 329 329 329 328 327 327 327 326 326 325 324 322 321 319 317 316 316 316 315 314 312 310 306 302 300 299 299 299 299 298 297 297 297 297 297 295 295 295 294 294 296 296 295 296 298 298 301 303 301 302 306 307 308 308 307 308 312 312 311 312 311
310 310 311 313 315 317 317 319 321 323 325 326 326 327 327 328 328 328 328 329 329 329 329 329 329 329 328 328 327 326 326 326 326 325 323 322 320 319 317 315 314 314 313 312 310 308 305 302 300 299 298 299 299 298 297 297 297 297 296 295 294 295 295 295 295 295 295 296 297 298 300 302 301 301 304 305 306 307 305 307 312 311 309 310 310
309 309 310 311 313 315 316 318 319 320 322 325 326 326 326 327 327 327 328 328 328 329 329 328 328 328 328 327 326 326 325 325 325 324 323 322 320 318 316 315 313 312 311 310 309 307 305 302 300 299 298 298 298 298 297 297 297 297 296 295 295 295 295 296 295 295 295 296 297 297 297 298 298 299 301 301 302 305 305 306 310 310 308 308 308
307 308 309 309 311 312 314 317 318 319 320 322 324 325 325 326 326 326 326 327 327 328 328 328 327 327 327 326 326 325 324 324 324 323 322 321 320 318 316 314 312 311 310 309 308 306 304 302 300 299 298 297 298 297 297 297 297 296 296 296 296 295 296 296 296 295 295 296 297 296 296 296 296 297 299 298 298 301 304 305 307 308 307 307 306
306 307 307 308 309 310 312 315 315 316 318 320 323 324 324 325 325 325 325 325 326 327 326 326 326 326 326 325 324 323 323 323 323 322 321 320 319 317 316 314 312 311 309 308 306 305 303 301 300 298 297 297 297 297 297 297 297 297 296 296 296 295 296 296 296 295 295 295 296 296 296 296 296 296 297 297 296 297 300 303 304 306 306 306 306
304 305 306 307 308 309 310 312 313 313 316 318 320 322 323 323 324 323 323 323 324 324 325 325 324 324 324 323 322 322 321 322 322 322 321 320 319 317 315 313 311 310 308 307 305 304 303 301 299 298 297 297 298 297 297 297 297 297 296 296 296 296 296 296 295 295 295 296 296 295 295 295 295 295 295 295 295 294 295 297 299 302 303 304 304
303 304 305 305 306 308 309 310 311 312 313 316 319 321 321 322 322 322 322 322 322 322 322 323 323 322 322 321 321 320 320 320 320 320 320 319 318 317 315 313 311 309 308 307 305 304 302 301 299 298 297 297 298 298 297 297 297 296 296 295 295 295 296 296 295 295 296 296 295 295 294 294 294 294 293 293 293 293 293 293 294 296 297 298 299
303 303 304 304 305 306 307 308 309 310 310 312 315 317 318 319 319 319 320 320 319 320 319 320 320 320 319 319 319 318 318 318 319 319 319 319 318 317 315 314 311 309 308 307 305 303 302 300 299 298 297 297 298 298 297 297 297 296 295 295 295 294 294 294 294 295 295 295 295 294 294 293 293 293 293 292 292 292 292 292 292 293 293 293 294
301 301 302 303 304 305 305 306 307 307 308 309 310 313 315 316 316 317 317 318 318 317 318 317 318 318 318 317 317 316 316 316 316 317 317 318 317 316 315 314 312 309 308 306 304 303 301 300 299 298 298 297 298 297 298 297 296 296 295 297 298 296 295 293 293 295 294 294 294 293 293 293 293 292 292 292 292 291 291 291 291 291 291 291 291
301 300 300 301 302 303 303 304 305 305 306 307 308 310 312 313 313 313 313 314 314 314 314 313 313 314 315 315 314 314 313 314 314 314 315 316 316 316 315 313 311 309 308 307 305 303 301 300 299 299 298 298 298 297 298 297 296 297 296 298 298 298 301 297 292 293 294 294 293 293 293 292 292 292 291 291 291 290 290 290 290 290 290 290 290
300 300 300 300 301 301 302 302 303 304 305 305 306 307 308 309 309 309 310 310 310 310 310 310 310 310 310 311 311 310 311 311 312 312 312 313 314 315 314 312 311 309 308 307 305 304 302 300 299 299 298 298 298 298 298 297 296 297 297 299 299 299 305 299 293 294 293 293 294 293 293 293 292 292 291 290 290 290 289 289 289 289 289 290 290
300 300 299 299 299 300 300 301 302 303 303 304 305 306 306 307 307 307 307 308 308 308 308 308 308 308 308 308 308 308 308 308 309 309 310 310 311 312 312 312 310 308 307 306 305 304 302 300 299 299 298 297 297 297 298 297 296 296 296 299 300 301 302 298 296 297 293 292 293 293 293 292 292 292 290 290 290 290 290 289 289 289 289 289 290
298 299 299 299 299 299 299 299 300 301 302 303 304 304 305 305 305 306 306 306 306 306 306 306 306 306 306 306 306 306 305 305 306 307 307 308 308 309 310 310 309 307 306 305 305 303 302 301 299 298 298 297 296 296 297 297 296 296 297 298 299 301 300 298 299 300 296 294 292 292 293 292 292 291 290 290 290 290 290 289 288 288 288 289 290
297 297 298 298 298 298 298 298 299 299 300 301 302 303 303 303 304 304 304 304 304 304 305 304 304 304 304 304 304 304 304 303 303 304 305 306 306 307 307 308 308 307 305 304 304 303 302 300 299 299 298 297 296 296 296 297 296 296 297 298 299 301 300 299 299 299 302 301 295 292 292 292 291 291 290 290 290 290 289 289 288 288 288 289 291
297 297 297 297 297 297 298 298 298 298 298 299 300 301 301 302 302 302 302 302 303 303 304 303 303 303 303 303 303 303 302 302 302 302 302 303 304 304 305 305 306 306 305 304 303 303 302 300 299 299 298 297 297 296 296 296 296 296 296 297 299 300 300 300 299 298 301 304 299 293 292 292 292 291 291 290 291 290 289 289 288 288 288 289 290
296 296 296 296 296 296 296 297 297 297 297 297 298 298 299 299 300 300 301 301 301 302 302 302 303 303 302 303 302 302 302 302 301 301 301 301 302 302 303 303 304 304 304 304 303 302 302 300 299 299 298 298 297 296 296 296 296 296 296 296 298 299 298 298 299 300 300 300 300 295 291 292 292 292 291 291 291 291 290 289 289 288 288 289 290
295 295 295 295 295 295 295 296 296 296 296 296 297 297 297 297 298 298 299 299 300 300 300 301 301 301 301 302 302 302 302 301 301 301 300 300 300 300 301 301 301 302 302 303 303 302 302 301 300 298 298 298 297 297 296 296 296 296 296 296 297 298 298 297 298 300 300 300 301 298 292 292 292 292 292 291 291 291 290 290 289 289 288 289 290
Wind_Speed
11 14 18 23 22 22 20 18 19 18 17 15 15 15 14 14 13 13 12 12 11 11 10 9 7 7 6 6 6 6 8 7 7 7 8 8 8 8 9 8 6 6 6 5 3 5 6 6 7 8 8 7 7 7 8 8 9 9 9 9 10 11 12 12 12 11 10 9 9 9 8 8 10 10 10 10 10 11 10 8 7 9 10 9 8
14 14 18 24 23 22 21 19 19 18 17 15 15 14 14 13 13 13 13 12 11 11 9 9 8 7 7 6 6 6 7 7 7 7 7 7 7 8 8 7 5 4 5 4 3 4 5 5 6 6 6 5 6 7 7 7 8 8 8 8 8 9 9 10 11 12 12 10 8 7 7 7 8 8 8 8 9 9 9 7 7 9 10 9 8
16 15 18 25 24 23 22 20 20 18 17 15 15 14 14 13 13 12 12 12 11 10 9 9 9 8 7 7 6 6 7 7 7 7 6 6 7 7 7 7 6 4 4 3 3 5 5 5 6 5 5 5 5 5 5 6 6 7 7 7 7 8 8 8 9 10 11 11 9 7 6 5 6 6 6 6 6 7 6 6 7 9 10 9 8
17 15 19 26 25 23 22 21 21 19 18 16 16 15 14 14 13 13 12 12 11 10 10 10 9 9 8 7 6 6 6 6 6 6 6 5 6 6 6 6 6 5 4 4 5 5 5 5 5 4 4 4 3 3 4 5 5 5 5 5 5 6 6 6 7 8 9 9 8 5 4 4 4 5 5 5 5 6 6 7 8 9 9 8 8
17 15 19 27 26 25 23 22 21 20 18 17 17 15 15 14 14 13 13 12 11 10 11 11 10 9 8 8 7 7 6 6 6 6 6 5 5 5 5 6 6 5 4 5 5 5 5 4 3 2 2 2 1 2 3 4 4 4 3 1 2 2 2 3 4 6 8 7 6 4 3 2 3 3 4 5 5 5 6 7 7 8 8 8 8
17 15 20 27 27 26 24 23 22 21 19 18 17 16 15 15 14 14 13 12 11 11 11 11 10 10 9 9 8 7 7 6 6 6 6 5 4 4 5 5 5 5 5 5 5 5 4 4 2 1 2 1 0 1 1 2 4 6 5 4 4 3 2 1 1 3 6 7 7 5 4 2 3 2 3 4 5 5 6 7 7 7 7 7 7
16 15 19 27 28 27 25 24 23 22 20 19 18 17 15 15 14 14 13 13 12 12 12 11 11 10 9 9 9 8 8 7 7 7 6 5 4 3 5 6 5 5 5 5 5 5 4 3 1 0 2 1 1 2 3 4 7 8 7 5 4 4 5 4 2 1 3 5 4 5 5 4 4 2 1 2 3 4 6 6 7 6 6 6 6
15 13 17 26 28 28 27 25 23 23 22 21 20 18 17 15 15 14 14 13 13 12 12 12 11 11 11 10 10 9 9 9 9 8 7 6 5 5 5 6 6 6 5 5 5 4 3 2 1 1 2 1 3 4 6 7 9 9 6 4 3 3 3 4 3 3 4 4 4 5 6 3 4 3 1 2 3 3 3 4 6 5 5 6 5
16 13 15 24 27 28 28 26 25 23 22 22 21 20 18 16 15 15 15 15 14 13 13 13 12 12 11 11 10 10 10 10 10 9 8 7 6 6 6 6 6 6 5 5 4 3 3 2 1 1 1 3 5 7 8 9 9 6 4 2 1 0 1 2 4 6 5 5 6 6 6 4 2 1 2 2 2 3 2 2 4 5 4 3 3
15 14 14 21 24 26 27 27 26 25 24 23 22 21 20 18 17 16 16 16 15 14 14 14 13 13 12 11 11 11 11 10 10 9 8 8 8 7 8 8 7 5 5 4 3 2 2 1 1 1 1 3 7 8 8 8 5 3 3 4 4 4 4 5 7 8 8 6 6 6 4 2 3 4 3 2 2 2 2 2 2 3 2 2 3
13 15 14 17 22 23 25 28 27 26 25 24 23 22 21 20 19 18 17 17 16 15 15 15 13 13 12 12 12 12 12 12 11 10 10 10 9 9 8 9 8 5 4 4 3 2 2 1 1 1 2 4 8 8 7 4 2 3 5 5 6 6 7 7 8 8 8 8 8 8 3 2 6 6 4 3 2 2 1 1 0 1 1 3 5
12 15 14 16 19 21 23 26 27 26 25 24 24 23 23 21 20 20 18 17 17 16 16 15 14 13 13 13 13 13 13 13 13 12 12 11 9 10 8 9 9 6 4 5 4 3 2 2 1 2 3 6 8 7 4 1 3 5 5 6 6 7 7 7 8 7 7 9 10 8 3 4 8 6 5 3 3 3 2 2 2 2 3 4 4
13 15 16 17 17 20 22 24 27 27 25 24 24 24 23 22 21 20 19 18 17 17 16 16 15 15 15 16 15 14 14 14 14 13 12 11 10 10 8 10 10 7 6 5 3 3 3 2 2 3 5 8 8 4 1 3 4 5 6 6 6 6 7 7 8 8 8 11 10 6 5 6 8 6 5 4 4 4 4 4 4 4 4 4 3
14 15 16 17 17 19 21 23 26 27 26 25 24 24 23 22 21 21 20 19 18 17 17 17 17 17 16 16 15 15 14 14 13 12 12 11 11 11 9 10 10 9 7 6 4 4 4 3 4 6 7 7 4 0 2 4 5 5 6 6 6 6 6 8 8 8 11 11 7 5 6 6 9 8 5 4 4 4 4 4 4 4 3 3 3
14 17 16 16 17 18 20 22 25 27 28 26 25 24 24 23 22 21 21 20 20 19 19 19 18 18 17 17 16 16 15 14 13 11 11 10 9 9 8 8 9 9 8 7 7 5 4 4 6 8 6 3 1 2 3 4 5 5 6 6 6 6 6 8 8 8 12 11 6 3 5 6 8 8 6 5 4 3 3 3 2 2 2 2 2
14 17 18 15 16 18 21 23 24 27 28 28 26 25 25 24 23 22 21 21 21 20 20 20 20 20 19 18 17 16 16 15 13 12 12 10 10 9 8 7 8 9 8 8 8 7 5 5 7 8 4 3 3 3 3 4 5 5 6 6 7 7 6 7 7 7 11 11 6 3 4 7 8 7 6 5 4 3 3 2 2 1 1 1 1
14 17 19 17 16 17 21 23 25 27 29 29 28 26 26 25 24 23 22 21 21 21 21 22 22 21 20 19 17 17 17 16 14 13 13 12 12 12 10 8 8 9 8 8 8 7 6 6 8 8 4 4 3 3 3 3 4 5 5 6 6 7 6 6 6 6 9 8 5 3 4 7 7 5 5 5 4 3 2 2 2 1 1 2 2
14 16 19 19 17 17 19 23 25 26 29 30 29 28 27 26 25 25 23 22 22 21 22 22 22 21 21 19 18 18 17 16 15 14 14 14 13 13 11 10 10 10 9 9 8 8 7 8 9 7 5 5 4 4 4 4 4 4 5 5 6 7 6 6 7 8 8 5 3 2 4 7 6 4 3 3 3 3 2 2 1 1 1 2 2
15 16 17 19 19 17 17 20 24 26 30 32 31 30 28 28 26 26 24 23 23 22 22 22 22 21 20 20 20 19 17 17 16 16 16 16 14 13 12 12 12 11 11 10 10 9 9 10 9 7 7 6 5 4 4 4 4 4 4 5 6 6 6 6 7 8 8 4 2 1 3 6 5 3 3 2 2 2 2 1 1 2 2 1 2
15 17 17 18 19 19 18 19 21 24 30 32 32 31 30 28 27 26 26 25 24 23 22 22 22 21 21 22 21 19 19 19 18 17 18 17 16 15 14 14 14 13 12 12 11 11 11 11 9 8 8 7 6 5 4 4 4 4 4 5 5 5 6 6 6 6 6 4 1 1 4 5 4 3 2 1 1 0 0 0 0 1 1 1 1
16 19 19 20 20 21 20 20 21 22 27 31 31 30 31 29 28 27 26 26 25 24 23 23 23 22 22 22 21 21 21 20 19 18 19 18 17 17 15 15 15 14 13 13 12 12 12 11 9 9 9 7 6 5 4 4 3 4 4 4 4 5 6 5 6 5 5 3 1 2 4 4 4 4 2 2 2 2 1 1 0 1 1 1 1
17 19 20 21 22 23 23 22 22 22 25 29 29 28 29 29 29 28 28 27 26 25 24 24 25 24 24 23 22 21 21 21 20 20 19 19 18 18 16 16 15 15 15 15 14 14 13 12 10 11 9 7 6 5 4 3 2 3 3 3 4 5 5 4 5 4 2 2 3 3 3 3 4 4 2 2 2 2 2 1 1 1 1 1 1
18 20 21 23 23 24 25 25 24 24 25 27 28 27 27 27 27 29 29 28 28 27 27 27 27 27 26 24 23 22 22 21 20 21 20 20 19 18 17 16 15 15 16 16 15 15 14 12 11 12 9 8 7 6 4 3 2 2 2 3 4 3 3 3 3 2 2 4 3 3 2 3 3 4 2 2 2 2 2 2 2 2 2 3 3
20 21 21 22 24 25 26 28 27 26 26 27 28 27 27 26 26 28 30 30 29 29 29 29 29 29 28 27 25 23 21 20 19 20 21 21 20 19 18 17 16 16 18 18 17 16 14 13 13 13 10 9 9 7 6 4 3 2 1 2 2 2 2 3 3 2 3 4 3 3 2 2 3 4 2 2 2 2 2 2 2 3 3 3 3
19 20 21 22 24 26 27 29 29 28 28 29 29 28 27 26 26 28 29 30 31 31 31 31 31 30 29 28 26 24 22 20 19 19 21 22 21 20 19 18 17 18 19 20 19 17 17 16 16 14 11 11 9 8 6 5 4 3 2 1 1 0 1 2 2 3 3 4 3 2 2 1 3 4 3 2 2 2 3 3 3 3 4 4 4
16 19 22 22 23 25 27 28 29 29 29 30 30 29 29 27 26 29 30 29 30 32 33 32 31 30 30 28 27 25 23 23 22 21 22 22 22 21 21 20 20 20 21 22 21 20 20 20 17 14 13 12 11 10 8 6 6 5 4 3 2 1 0 1 2 2 3 3 3 2 1 1 2 4 4 3 2 3 3 3 4 4 4 4 4
17 19 21 22 22 24 26 28 30 31 31 31 30 30 30 29 27 27 29 30 30 31 32 33 32 31 30 28 28 27 25 25 25 24 23 23 22 21 21 21 21 22 23 23 22 21 21 21 17 15 14 13 13 13 11 9 8 7 5 4 4 3 2 1 1 2 3 3 2 2 1 1 2 4 5 3 3 4 4 4 4 4 4 4 4
16 19 20 21 22 23 24 27 29 31 32 31 31 31 31 31 29 27 27 29 29 30 30 31 32 32 31 30 29 27 26 27 26 25 25 24 23 22 21 21 23 23 23 24 22 20 20 20 18 17 16 16 16 15 12 11 9 8 7 6 5 4 3 2 1 2 4 3 1 1 1 1 2 4 6 4 3 4 4 4 4 3 4 4 4
17 19 20 21 22 22 24 27 29 30 32 32 33 32 31 31 31 30 28 28 29 29 29 29 29 30 31 31 30 28 27 28 27 27 26 25 24 22 21 21 23 23 23 23 22 21 20 20 19 18 19 19 18 15 13 12 11 10 9 8 7 6 5 4 3 2 3 3 2 1 1 1 2 4 6 5 3 4 4 3 4 4 4 4 4
20 21 20 21 22 22 24 26 28 30 31 32 33 32 32 32 32 32 30 29 30 30 28 27 28 29 30 31 31 30 29 29 28 27 27 26 25 23 22 22 23 24 24 23 23 23 22 22 21 20 21 21 18 16 14 13 12 11 10 9 8 7 6 5 4 3 4 4 2 1 1 2 3 4 7 7 4 3 3 3 3 4 5 4 4
21 20 19 19 20 21 23 25 27 28 30 31 32 32 31 32 32 33 32 31 31 31 29 27 28 29 30 31 32 31 30 30 29 27 27 27 27 25 23 22 23 24 24 23 25 25 24 23 22 21 22 20 18 16 15 14 14 12 11 10 9 8 8 6 5 5 5 4 2 1 1 2 4 5 6 8 7 6 5 5 4 4 5 5 4
19 19 19 18 18 20 22 23 25 26 28 29 30 31 31 30 31 32 33 32 32 32 30 28 28 29 30 31 32 33 32 31 29 28 28 28 28 27 25 24 25 26 25 24 25 25 24 22 21 21 20 19 17 16 15 15 14 13 12 11 10 10 9 8 6 5 5 4 2 2 3 4 5 6 7 9 9 9 9 9 7 5 5 5 5
13 14 15 15 15 17 19 20 22 24 26 27 28 29 29 29 28 29 31 32 31 32 32 31 30 29 30 30 32 34 33 31 30 29 28 28 28 28 27 26 26 27 25 25 25 24 23 22 21 20 19 19 18 16 15 14 14 14 12 12 11 10 10 8 7 6 6 5 3 3 4 5 6 7 8 9 9 9 10 10 9 6 5 6 5
11 10 9 10 11 13 15 17 19 22 24 25 25 26 27 27 26 26 27 28 29 30 32 32 30 30 30 30 31 34 35 33 30 29 29 29 29 29 29 29 28 27 26 26 26 24 23 23 22 21 20 20 20 18 17 16 15 14 13 12 12 11 9 8 7 7 7 6 6 5 4 5 7 8 9 9 8 8 8 10 11 9 8 9 6
20 16 13 7 7 8 11 13 15 18 20 22 23 22 23 24 24 24 24 25 27 28 29 30 30 29 30 30 31 33 35 34 31 30 30 30 30 30 30 30 29 28 27 27 27 26 25 25 25 24 23 22 21 20 19 17 16 15 14 12 12 10 9 9 9 7 7 8 8 8 7 7 8 10 11 11 9 9 8 9 12 12 12 12 9
22 19 17 11 4 5 8 10 11 13 16 19 20 19 17 19 20 20 22 22 23 25 25 26 27 27 28 30 31 32 33 33 32 31 31 31 31 31 31 30 30 29 28 28 28 27 27 27 26 26 25 23 22 20 19 18 16 15 13 12 12 10 9 9 9 8 8 9 9 10 11 11 9 10 12 13 11 11 8 9 13 13 13 14 11
22 21 19 17 11 6 5 6 8 8 11 14 16 17 15 14 15 16 18 18 19 21 21 22 23 23 25 27 28 31 32 32 32 31 31 31 31 31 30 30 30 30 29 29 29 28 28 27 26 26 26 24 22 21 20 18 16 15 13 13 12 10 9 9 9 9 9 9 10 11 12 12 10 11 12 13 13 13 10 10 13 12 11 12 12
22 21 21 19 17 13 9 3 3 4 6 8 10 13 13 11 11 12 13 14 15 17 18 18 19 20 20 22 24 26 29 31 32 31 30 30 30 29 29 29 30 30 29 29 29 28 28 27 26 26 25 24 23 22 21 19 17 16 14 13 13 11 9 10 9 9 10 11 11 12 12 12 12 13 13 13 13 13 13 13 13 12 11 11 12
23 22 22 20 18 16 13 8 4 4 2 4 4 7 10 8 8 9 10 11 12 14 15 16 16 17 17 17 18 20 24 29 31 31 29 29 29 28 27 27 29 29 29 29 28 27 27 27 27 26 25 24 23 23 22 20 18 16 15 13 12 12 11 11 10 9 10 12 12 12 12 12 13 14 15 14 13 13 14 15 15 14 13 12 12
25 24 24 23 21 18 16 14 9 6 4 1 1 3 6 7 6 6 8 9 10 12 13 13 13 14 15 14 14 16 19 24 29 30 29 28 28 28 27 26 27 28 29 29 28 28 28 28 27 27 26 23 22 23 23 22 19 14 13 13 12 12 12 12 11 10 11 13 13 13 13 13 14 15 15 16 14 13 14 15 16 15 15 14 14
26 26 26 26 25 22 21 20 15 10 7 5 3 1 2 3 4 5 6 7 9 10 11 13 12 12 13 14 14 14 16 20 25 29 30 28 28 28 27 27 27 27 29 29 28 28 28 28 27 27 27 25 22 23 25 24 20 14 9 9 10 11 11 11 12 13 14 15 14 14 14 14 14 15 16 16 15 14 14 14 15 15 15 15 15
26 27 26 26 26 25 24 23 19 16 13 10 9 6 3 1 1 1 2 3 3 5 7 10 12 11 10 12 13 14 15 18 22 27 29 29 29 29 28 28 28 28 28 28 28 27 27 27 27 26 27 27 25 26 29 26 19 15 11 6 4 6 8 10 13 14 15 15 14 14 14 15 15 15 16 16 16 15 15 15 15 15 14 15 16
25 27 27 27 28 27 25 23 21 21 17 13 13 13 8 5 5 5 4 3 3 4 4 5 9 11 10 10 11 12 13 16 19 22 26 28 29 30 29 29 29 29 28 29 28 28 28 28 29 28 27 26 24 26 31 29 21 18 12 5 3 3 4 9 14 15 15 15 14 15 15 16 16 15 16 17 16 16 16 16 16 15 14 15 17
26 28 28 27 28 27 26 23 21 22 20 14 14 14 10 8 7 6 5 3 2 1 2 2 5 8 10 11 12 12 13 15 17 19 22 25 28 30 29 29 29 29 29 30 30 30 30 31 31 32 30 26 23 24 31 32 26 20 10 3 4 4 2 7 13 15 16 16 16 17 17 17 17 16 16 16 16 17 17 17 17 16 15 16 17
27 28 28 27 27 26 25 24 23 22 21 17 15 14 11 10 10 9 8 6 4 3 3 3 3 4 7 9 11 12 13 14 16 17 19 22 25 27 28 28 28 28 28 30 31 31 31 33 33 34 34 31 28 26 29 31 30 28 19 7 5 4 3 6 9 10 15 18 18 18 18 18 18 17 16 16 16 17 18 18 17 16 17 18 17
27 27 28 28 27 25 24 24 24 23 22 18 16 15 13 12 13 12 11 10 8 8 7 5 3 3 3 5 7 9 10 12 14 15 17 19 22 25 26 27 27 27 27 29 30 31 31 33 34 35 36 36 33 27 28 32 32 31 27 18 10 5 5 9 7 3 10 16 17 18 18 19 19 18 17 17 17 18 18 18 18 18 18 19 19
26 27 28 29 29 27 25 24 24 24 23 20 17 17 16 15 14 12 12 12 12 12 11 9 6 5 5 5 7 9 9 9 11 13 15 17 19 21 24 26 26 25 25 27 30 30 31 33 34 36 36 36 35 30 29 34 32 30 32 28 18 8 9 12 7 3 4 8 15 18 18 18 18 19 19 20 19 19 19 18 17 19 19 19 20
27 29 30 30 29 28 26 26 26 25 23 21 19 18 17 16 14 13 13 12 11 10 9 9 7 6 6 7 7 9 10 10 10 11 13 15 16 18 20 23 25 25 24 25 28 29 30 31 32 35 36 36 36 33 32 33 32 31 33 33 24 15 15 15 13 10 6 2 9 13 17 20 20 20 21 22 23 22 21 20 19 19 20 21 22
27 29 29 29 28 28 28 28 29 28 25 22 20 19 17 16 15 15 14 13 11 10 8 8 9 8 8 7 8 9 10 10 10 10 11 13 14 16 17 20 23 25 25 25 26 28 29 30 31 33 35 36 37 35 34 34 35 34 33 32 28 21 18 16 15 14 8 4 5 6 11 15 17 23 25 23 24 24 23 22 21 20 21 23 25
26 27 28 28 28 28 29 30 30 29 27 25 23 21 19 18 16 16 15 14 13 12 10 10 10 9 9 9 9 9 10 10 11 10 10 11 12 14 15 17 19 22 24 25 25 26 28 29 30 31 34 36 36 36 35 34 36 37 35 33 29 22 16 12 13 16 10 6 5 5 12 15 13 20 28 29 26 24 24 23 22 22 23 25 26
25 27 27 26 26 26 28 30 29 28 28 27 26 25 23 21 19 17 16 15 14 13 13 14 13 12 11 11 10 10 10 10 11 11 11 11 11 12 13 15 17 19 22 24 25 26 27 29 29 29 32 34 36 36 35 34 33 35 36 35 33 31 26 19 19 22 14 7 6 4 12 19 16 16 23 30 30 26 25 26 25 24 24 26 28
Wind_Direction
177 187 183 181 180 179 174 168 168 166 167 165 165 163 164 167 164 166 165 162 162 167 166 165 163 165 176 179 177 170 164 151 144 142 135 138 139 141 146 142 126 114 109 104 106 116 107 105 113 109 102 99 92 79 77 79 82 81 79 77 74 74 72 75 80 80 82 88 99 104 101 101 101 99 99 98 98 93 93 91 86 85 80 78 78
177 188 183 182 182 180 176 170 170 168 168 168 169 168 169 170 168 172 171 168 171 172 168 174 178 176 172 166 165 164 164 155 148 143 140 143 142 146 153 151 136 127 126 120 110 118 122 120 117 113 111 107 95 79 72 71 77 79 78 80 77 77 75 77 77 78 82 87 94 102 101 102 104 102 102 98 99 100 101 89 79 83 77 76 77
172 184 184 181 182 182 177 173 171 169 172 172 172 172 173 174 174 176 175 175 175 172 175 180 174 167 158 154 155 157 162 156 151 147 143 146 147 149 156 157 142 130 135 141 138 134 137 132 122 126 117 96 89 78 73 70 74 76 79 81 77 75 72 74 77 82 85 89 96 99 98 99 104 101 103 103 102 102 99 81 73 77 73 73 73
172 181 183 181 183 183 179 176 171 170 175 175 175 174 176 178 179 182 179 179 179 178 182 174 162 158 154 154 156 158 163 162 159 153 149 153 160 159 161 161 148 140 145 145 139 135 136 132 127 137 113 85 81 79 81 72 71 69 76 81 76 72 65 67 71 84 93 98 94 89 102 93 95 92 92 101 102 99 88 76 74 73 69 68 68
168 179 182 181 182 184 182 179 173 172 176 175 176 176 180 183 183 185 183 182 183 182 176 166 161 161 163 164 165 169 169 172 169 162 163 169 180 175 169 169 158 153 157 147 134 131 129 123 126 158 120 92 66 73 80 67 58 39 32 40 38 52 56 57 59 79 102 108 73 69 143 95 87 89 86 96 95 95 84 73 72 72 67 66 66
165 181 181 180 183 185 184 182 176 175 177 176 176 177 181 186 185 185 184 183 184 180 171 168 171 170 174 175 173 179 178 177 173 170 172 175 189 184 171 169 164 159 157 147 133 127 120 118 129 213 153 112 22 29 38 32 13 357 343 313 299 282 275 304 60 78 102 109 71 80 138 70 61 81 85 93 84 76 68 63 65 75 72 67 66
166 182 181 181 185 185 186 184 180 179 179 178 178 181 183 186 187 186 182 180 180 177 174 175 179 179 181 182 180 186 183 177 174 171 169 167 168 163 161 161 164 158 148 137 122 115 110 115 128 173 126 108 314 325 320 328 336 339 333 314 295 278 270 260 239 181 125 123 88 96 116 50 12 18 79 93 81 66 62 57 55 75 84 71 64
168 181 183 183 186 187 188 186 183 182 181 182 182 184 186 187 188 186 182 178 180 179 180 182 184 186 186 187 186 191 186 179 175 167 163 159 148 143 151 158 164 156 142 128 115 110 106 111 122 122 107 359 324 326 321 324 329 333 331 323 302 276 261 250 228 191 175 166 152 127 121 92 359 358 70 80 72 61 71 67 60 75 86 83 71
171 175 184 184 188 189 190 188 186 184 184 186 186 187 188 188 188 188 187 184 183 184 186 186 189 189 190 192 190 195 189 179 171 163 163 159 147 144 149 156 160 155 145 132 122 112 110 118 148 162 102 323 320 322 320 325 327 334 345 4 31 123 174 192 156 145 154 178 181 155 133 113 56 90 102 81 59 38 44 65 80 75 72 96 75
174 172 186 186 190 193 192 191 188 187 187 189 189 189 189 189 189 190 192 191 187 189 191 189 192 192 193 195 193 198 192 175 165 159 162 165 159 158 162 159 157 160 156 145 144 132 126 148 181 215 234 299 311 314 316 324 329 2 51 69 78 91 105 131 143 140 137 157 179 157 143 90 97 135 119 87 72 46 31 31 66 41 36 100 87
178 172 186 189 193 198 195 193 190 188 189 191 192 191 190 190 191 192 194 194 190 191 193 190 193 195 196 198 197 198 190 171 165 169 176 180 178 183 185 173 167 169 170 173 183 187 187 191 207 228 225 279 302 309 314 327 19 77 80 81 83 91 103 119 135 146 145 148 148 133 144 115 111 116 98 87 80 66 61 91 72 353 62 99 98
182 174 183 194 199 203 198 196 193 191 191 193 195 194 192 192 194 196 197 197 194 193 194 193 195 197 200 203 200 195 186 175 180 192 195 192 195 203 207 196 187 181 188 191 189 198 197 190 195 197 227 280 301 307 317 35 92 87 83 81 84 91 105 112 124 139 143 140 129 119 141 140 123 109 93 93 78 74 93 130 135 125 116 104 102
184 176 185 199 202 204 202 199 197 194 193 195 197 196 194 194 196 197 198 198 197 197 196 196 196 199 206 211 205 194 185 181 190 199 198 197 204 214 224 225 210 192 201 209 198 194 190 190 205 221 252 290 303 305 20 105 91 87 86 83 85 89 102 105 116 126 124 126 123 129 155 138 127 117 102 97 91 93 93 107 118 116 116 113 106
184 178 190 202 201 201 202 201 201 198 196 197 199 198 198 197 198 199 198 199 201 201 199 199 198 201 209 215 207 194 188 188 194 196 199 210 219 226 232 232 220 203 207 222 223 204 195 200 223 247 273 296 298 243 113 101 90 89 86 86 88 90 101 100 104 113 116 116 114 153 168 147 130 118 109 103 102 110 102 105 113 112 121 121 117
185 181 189 205 203 200 201 202 203 201 200 200 200 200 202 202 203 203 202 203 204 204 202 200 200 203 210 214 205 195 191 191 196 197 205 217 220 226 228 219 216 213 209 218 222 210 205 209 235 257 280 285 215 140 112 99 94 90 88 89 91 94 103 103 105 115 119 108 96 172 170 158 144 123 111 107 103 114 119 116 112 119 135 125 122
188 188 188 201 208 202 201 203 204 204 203 202 203 203 204 205 206 207 207 207 208 208 205 202 202 205 209 212 205 197 194 194 198 202 208 210 205 215 224 212 207 210 206 212 215 209 213 216 239 256 265 212 172 136 113 100 95 90 91 92 93 97 100 110 111 120 125 113 112 180 158 152 150 128 110 104 104 108 117 121 127 141 138 149 163
191 198 192 197 208 208 204 205 205 206 205 204 205 206 207 208 209 210 211 211 211 211 208 205 205 206 208 210 203 196 198 202 206 207 213 218 217 226 235 217 199 202 202 205 208 208 214 215 235 249 236 202 171 143 124 109 103 96 94 94 96 99 101 114 106 115 126 119 141 164 147 154 147 127 111 105 106 101 109 121 134 142 174 243 237
194 206 200 198 205 213 210 208 208 207 208 205 206 208 209 210 212 214 215 216 215 213 212 209 208 208 208 206 198 196 204 209 211 211 217 225 227 230 232 215 194 198 201 201 205 207 208 209 228 239 221 201 174 156 144 132 122 110 104 100 100 103 109 115 110 119 119 116 179 160 137 154 146 125 113 109 109 107 114 114 143 163 194 252 264
198 209 207 203 202 211 214 213 213 211 209 206 207 209 211 212 214 217 217 218 218 215 215 214 212 210 207 202 197 198 204 209 213 215 221 226 228 228 227 218 199 196 202 199 203 204 203 205 219 227 210 198 180 168 158 148 133 117 110 104 104 109 109 113 123 130 124 140 203 163 147 146 132 110 97 106 113 118 123 114 165 194 210 227 259
207 209 210 209 202 204 211 216 215 214 210 207 208 210 212 213 215 218 217 218 219 217 216 216 214 210 204 202 201 202 204 210 216 221 226 229 231 232 230 224 204 194 200 199 200 199 199 201 211 219 205 195 184 176 168 150 128 110 96 94 100 103 104 114 129 132 141 171 177 131 170 146 107 76 73 80 75 69 143 98 193 199 207 219 250
218 215 212 210 206 203 206 213 215 213 209 206 209 213 215 215 216 217 216 217 218 217 216 216 214 208 205 205 206 208 210 216 222 226 228 231 234 235 233 227 209 194 197 198 196 195 196 194 203 215 202 194 186 180 173 144 118 97 82 83 84 82 92 110 120 132 155 169 127 141 179 160 105 63 50 40 10 350 342 342 77 152 162 181 221
223 223 218 212 209 207 205 207 211 212 208 206 209 213 217 218 218 218 216 216 217 216 214 213 212 208 207 209 211 214 218 222 226 228 229 232 235 236 232 229 216 198 195 196 193 193 194 187 199 215 201 193 192 185 174 142 116 93 79 66 62 66 79 92 103 129 150 95 98 138 173 177 120 66 42 41 24 15 26 47 88 97 104 103 109
221 225 225 218 213 211 207 205 208 211 208 206 207 210 215 217 217 218 217 216 216 216 214 211 210 210 211 213 216 219 223 225 227 229 231 232 232 233 232 231 221 201 194 196 192 192 192 184 198 212 198 194 202 191 175 156 140 111 92 65 57 60 73 70 76 92 63 57 77 114 146 188 144 88 53 63 53 42 59 72 90 87 86 94 95
222 228 230 222 216 215 212 209 208 208 207 206 206 207 212 216 216 216 217 217 216 216 214 211 210 211 214 217 219 220 222 225 227 230 230 229 228 228 230 231 221 202 196 196 192 191 191 185 196 206 197 198 207 194 180 178 171 148 139 78 75 64 60 53 37 34 43 51 54 83 114 184 158 112 77 97 96 80 93 93 95 94 92 94 89
227 225 224 223 221 219 215 212 209 208 207 206 206 205 207 214 216 214 215 216 216 215 214 213 212 213 216 219 219 217 217 219 223 225 224 224 224 223 224 225 216 202 198 198 194 193 193 193 200 201 196 201 206 199 191 190 182 181 201 196 155 83 51 50 28 358 16 42 38 50 90 159 166 131 101 123 124 112 117 111 111 107 104 99 86
228 216 217 223 225 221 217 214 210 208 208 206 206 206 205 209 213 213 212 214 216 216 215 215 214 214 216 219 219 216 214 215 218 219 217 219 221 220 220 219 211 201 201 202 199 197 200 204 206 201 200 204 204 202 196 193 191 198 203 203 214 205 233 32 35 341 352 21 16 20 59 133 174 152 124 128 140 130 124 119 121 118 110 104 93
228 218 219 223 223 222 220 216 211 209 209 208 207 207 206 207 210 211 211 212 214 216 217 217 217 216 217 219 219 215 212 213 215 215 214 216 221 222 220 214 208 202 202 205 205 204 207 213 213 205 204 207 207 205 198 200 203 206 208 203 215 216 220 256 5 322 326 351 3 358 8 129 172 156 131 130 147 139 137 132 126 124 118 109 102
234 225 224 222 222 224 221 217 214 211 209 208 207 208 208 208 208 208 210 211 211 213 216 218 218 218 218 218 219 214 210 211 212 214 214 214 220 222 219 211 205 204 204 206 208 210 212 217 216 205 204 209 211 208 202 207 211 213 215 211 217 223 225 236 265 303 305 320 4 343 322 144 172 159 137 135 153 146 144 145 136 134 132 122 110
238 232 228 223 223 226 223 218 216 213 210 209 208 208 209 209 209 208 210 210 209 211 214 215 216 216 216 215 216 212 208 209 211 215 214 213 216 217 215 207 202 204 207 205 205 212 213 215 217 206 206 213 213 210 207 209 213 216 218 219 221 222 225 230 239 259 277 295 330 317 283 171 169 167 147 130 143 161 155 155 148 149 146 135 119
242 239 234 228 225 226 224 219 218 216 212 210 209 208 209 210 211 210 209 210 210 211 213 213 213 213 213 213 213 210 208 208 210 214 215 211 210 210 209 205 200 203 211 206 202 212 212 211 214 208 210 215 214 212 211 210 213 217 217 220 223 222 225 226 235 246 259 275 286 281 262 192 164 172 162 137 125 142 149 156 150 156 157 149 129
249 247 244 238 230 227 225 222 221 219 215 212 212 210 210 210 212 211 210 211 211 211 212 212 213 212 211 211 211 209 208 208 209 213 215 210 205 205 205 203 200 204 212 207 203 211 213 211 212 210 213 216 215 214 213 212 213 217 218 220 222 223 226 226 229 236 246 259 261 233 211 192 172 174 179 159 143 136 146 160 158 169 170 168 160
255 257 256 250 239 232 228 225 222 220 217 215 214 213 212 213 213 212 211 212 212 211 210 211 212 211 211 211 209 208 208 208 208 212 212 208 205 205 203 201 201 204 209 207 206 212 213 213 213 212 214 214 215 213 213 215 214 216 217 218 222 224 226 226 225 225 234 243 241 215 184 181 177 175 186 181 171 166 167 165 158 166 176 177 181
269 273 264 252 248 243 234 228 224 221 219 217 217 216 215 215 215 215 213 211 211 210 209 209 210 210 211 212 210 208 208 207 207 210 210 208 206 205 203 201 202 204 207 206 208 212 211 211 211 209 209 209 210 208 208 213 215 216 216 217 220 223 226 226 225 219 217 218 211 205 181 178 181 180 189 192 194 191 182 172 154 147 172 175 177
343 330 297 255 247 250 242 232 224 222 222 221 219 219 218 217 219 218 216 213 212 211 210 209 210 210 211 212 212 210 209 207 207 209 210 209 208 206 205 203 203 205 206 207 209 210 208 207 206 204 203 204 207 204 203 208 212 214 214 216 219 221 223 223 225 216 201 193 191 195 180 176 182 184 192 197 204 201 189 182 162 148 165 162 150
9 5 351 307 252 254 249 234 226 224 223 222 220 221 221 219 221 220 219 218 216 215 214 213 213 213 213 213 212 211 210 207 208 210 209 210 209 207 207 205 205 207 208 210 211 209 208 207 206 202 198 200 205 202 201 206 209 212 212 211 215 218 216 215 222 214 197 190 187 185 176 182 188 186 194 199 202 203 197 195 180 166 170 161 140
14 13 10 1 312 271 264 244 232 230 227 225 220 220 223 220 221 220 219 220 219 218 218 216 216 216 216 216 214 213 211 207 209 213 211 211 211 209 209 208 207 208 210 211 212 210 208 208 207 204 200 198 202 201 200 206 207 209 210 206 210 214 212 216 223 214 199 195 194 190 187 195 200 193 198 202 203 208 205 200 190 178 174 165 148
22 21 21 21 17 2 319 261 237 239 236 233 225 221 223 221 219 219 219 220 221 219 218 218 217 218 219 219 218 216 214 210 211 216 214 213 214 212 210 209 209 210 211 212 212 212 210 209 208 207 206 202 202 200 197 202 204 203 201 202 207 207 212 222 224 215 203 200 203 204 202 206 208 202 206 209 206 209 207 201 196 190 183 175 165
29 28 29 29 29 29 22 360 245 261 248 241 234 223 221 222 217 216 219 221 223 220 219 220 220 220 221 222 223 220 217 215 214 217 217 215 215 214 213 212 212 211 212 213 213 211 210 212 209 207 208 207 204 200 196 197 198 196 195 199 205 199 206 220 222 217 207 207 214 216 215 214 212 208 210 216 213 207 207 206 205 204 198 193 188
31 32 33 36 38 38 38 38 17 352 290 244 237 217 215 222 218 215 220 220 221 220 219 222 222 220 221 225 230 227 222 219 218 218 218 216 214 215 216 215 214 213 213 214 212 209 209 211 211 207 206 208 210 204 197 195 192 193 194 194 198 196 201 212 218 219 213 215 219 221 222 220 217 214 213 219 220 212 209 210 211 211 208 204 199
35 35 36 38 39 42 47 46 34 26 31 45 201 199 206 220 223 222 224 222 224 223 219 221 222 223 225 230 236 233 225 221 220 220 219 217 216 217 217 217 217 215 214 214 212 210 210 210 211 209 202 202 208 204 198 194 184 178 185 190 192 195 202 209 211 211 214 219 220 219 223 223 220 218 218 220 223 219 213 215 217 215 214 211 206
37 37 37 37 38 41 44 44 44 46 45 49 62 122 185 222 233 237 238 234 235 231 227 226 226 233 234 232 236 234 227 224 223 222 221 220 219 219 218 218 218 217 218 219 217 216 214 212 211 210 204 197 196 198 198 191 174 159 165 185 196 202 208 209 207 208 214 221 224 222 221 224 224 220 221 223 223 222 218 219 222 219 218 218 216
37 37 38 37 39 42 41 41 47 48 44 45 50 51 53 38 353 249 222 229 229 222 228 230 229 237 240 233 235 236 233 231 227 225 225 224 223 222 221 222 221 219 220 222 221 218 216 214 210 208 206 201 197 196 195 189 177 171 165 155 184 216 220 214 211 215 220 224 225 220 218 223 225 222 222 224 224 223 221 220 224 224 220 221 222
39 39 40 39 39 40 40 43 48 48 45 46 45 41 41 44 41 51 85 120 119 154 184 208 221 232 242 243 240 239 239 238 235 231 229 228 227 226 225 226 225 222 220 219 218 216 215 213 211 210 205 202 201 199 198 197 187 173 161 155 178 183 234 228 218 218 220 221 218 214 217 222 225 225 225 226 225 224 223 221 224 225 219 220 224
40 39 40 41 40 39 41 43 49 49 47 50 49 41 35 33 25 22 33 52 71 150 220 234 236 235 241 248 249 248 250 249 245 240 237 234 231 229 228 228 228 226 224 222 219 216 215 213 212 212 206 199 199 200 203 204 196 181 164 138 159 158 243 224 209 212 215 217 215 213 217 221 222 224 225 228 229 226 225 224 224 223 217 218 223
41 40 39 41 42 42 42 44 49 51 48 53 57 51 42 36 30 24 23 18 7 340 320 309 285 262 252 258 261 258 257 256 253 250 246 242 238 234 231 230 230 229 227 226 224 222 220 216 213 212 208 204 202 200 202 205 205 203 197 172 145 188 229 178 178 204 211 212 216 217 221 224 225 225 224 227 230 228 227 226 223 220 215 217 222
42 41 42 43 45 45 45 45 48 50 50 55 59 58 55 48 40 34 28 21 18 21 28 29 9 341 306 280 273 271 268 261 257 255 253 249 245 240 235 233 233 232 229 229 229 226 223 220 217 213 211 210 207 201 200 205 208 209 209 209 207 207 176 152 144 182 209 214 218 219 224 228 229 229 225 224 226 229 229 227 223 220 214 214 221
45 45 45 44 45 46 46 45 46 48 51 54 59 60 58 54 50 46 40 32 26 26 29 28 18 3 347 318 296 290 286 276 265 259 256 254 251 246 241 238 237 237 234 231 230 229 227 225 222 218 215 213 209 204 202 205 208 209 211 216 222 219 182 169 167 151 175 221 222 219 224 228 230 231 227 223 224 228 230 228 223 220 215 211 218
48 48 47 44 44 45 45 46 46 47 49 52 56 58 56 52 51 52 48 40 31 27 27 26 21 3 341 325 312 303 298 295 284 271 263 259 256 252 247 243 240 241 240 237 234 233 232 229 226 223 219 216 213 210 208 205 207 210 211 215 226 227 200 186 190 182 149 172 213 216 223 225 228 230 227 226 226 228 229 228 224 221 217 211 215
49 50 49 47 46 46 47 46 46 46 47 50 53 54 55 53 51 48 42 35 28 26 28 30 25 12 355 337 323 311 302 299 297 289 276 266 263 259 253 248 244 243 243 242 240 237 235 233 231 227 223 220 218 216 215 211 210 212 211 215 223 224 209 199 198 191 172 155 180 203 209 211 226 231 227 226 227 229 228 229 227 223 219 213 214
48 52 52 49 48 48 49 48 46 45 45 46 49 50 50 50 49 46 41 34 26 22 23 26 22 13 4 352 338 324 310 300 298 299 293 280 272 267 262 256 251 249 246 245 245 242 240 238 237 234 229 225 223 221 220 219 217 216 214 213 213 212 208 208 205 200 195 179 176 189 189 186 206 225 223 222 223 227 227 228 227 223 219 214 215
45 50 51 49 48 48 50 50 48 46 45 45 46 47 46 46 45 43 40 34 28 23 21 21 19 14 8 1 350 338 327 313 300 298 299 295 286 278 272 266 260 255 251 249 248 247 245 242 241 240 235 230 227 226 225 225 224 221 218 215 212 210 207 207 206 201 198 182 163 175 191 192 201 215 218 219 220 223 225 227 227 224 220 216 215